Dewpoint
59 59 59 59 60 60 60 60 60 60 61 60 60 60 60 60 61 61 61 60 61 61 61 61 61 61 62 62 62 57 56 35 15 23 25 31 49 52 57 56 56 56 55 47 44 41 32 18 15 13 15 19 25 30 15 25 18 37 29 25 21 15 16 16 13 12 14 10 8 6 8 10 15 18 19 16 22 20 20 17 13 12 11 12 12 12 13 13
58 59 59 59 59 59 60 60 60 60 60 60 60 61 60 60 60 60 61 61 61 62 61 60 60 61 61 61 60 58 49 33 15 16 27 46 52 59 56 58 57 56 52 36 28 20 14 8 8 11 8 17 18 19 16 21 14 25 23 21 18 14 15 11 5 3 3 5 8 10 6 8 15 15 17 17 21 24 23 19 14 11 11 11 11 11 11 10
59 59 59 59 59 59 59 60 60 60 60 60 60 60 60 60 60 61 61 61 61 60 61 60 60 60 61 59 61 55 36 24 14 15 19 51 51 54 55 56 55 56 45 38 31 21 16 16 14 10 4 14 12 23 19 19 24 24 30 14 16 15 10 4 3 5 5 5 4 6 3 7 8 20 22 21 21 23 23 23 22 11 9 9 8 7 6 6
58 58 58 58 59 59 59 60 60 60 60 60 60 61 60 60 61 60 62 61 60 61 60 61 60 55 55 56 56 54 39 33 12 15 20 50 50 53 55 54 54 53 42 35 25 22 22 19 14 14 31 16 29 15 15 20 27 24 17 17 15 9 11 6 7 7 5 5 2 6 6 7 21 21 22 21 21 19 17 16 15 11 8 7 6 6 7 6
58 58 58 58 58 58 59 60 60 60 60 60 60 60 60 61 60 60 61 61 62 61 62 60 58 57 58 57 57 48 31 17 14 16 27 48 51 51 53 53 53 49 43 37 35 27 21 12 15 24 29 17 25 19 14 14 16 28 15 10 9 7 8 8 6 7 8 5 4 4 5 8 20 20 20 19 18 15 16 15 16 12 8 6 6 7 8 7
57 58 58 58 58 58 59 59 60 60 60 60 61 61 60 60 60 60 61 61 60 60 59 59 60 59 58 57 48 45 35 8 28 15 49 48 50 51 51 51 53 49 45 28 19 9 8 6 9 25 22 16 17 14 14 18 19 19 15 10 9 10 8 8 3 10 11 7 5 5 2 4 16 17 19 19 17 14 14 14 13 12 9 7 7 6 6 6
57 57 57 57 58 58 59 59 60 60 60 61 62 61 59 59 59 59 59 58 58 58 59 58 59 59 57 55 57 17 14 13 14 16 47 48 49 48 48 49 45 36 17 12 9 12 11 11 17 26 20 22 20 13 19 17 14 20 15 10 9 9 7 9 -0 3 9 9 1 2 5 16 19 17 16 17 17 19 18 14 15 14 13 12 9 7 7 6
57 57 57 58 58 58 58 59 59 59 60 61 61 59 58 57 58 59 58 58 57 56 57 56 57 56 54 51 45 17 12 12 13 20 44 46 28 26 34 29 22 21 10 12 10 6 11 12 11 36 14 18 28 17 28 20 20 23 20 16 10 7 3 4 1 2 5 8 3 4 7 15 15 14 15 12 11 10 10 11 12 11 11 10 8 10 12 8
57 57 57 57 58 58 58 59 59 60 61 61 60 60 59 58 59 60 60 60 60 58 56 56 54 55 55 44 35 10 8 11 14 16 15 19 16 18 19 12 18 7 7 11 12 9 9 16 13 14 21 20 16 28 26 24 22 29 23 11 5 3 1 -1 2 3 2 5 4 4 5 15 13 12 10 9 8 7 5 4 4 3 3 3 4 6 7 8
57 57 57 57 58 58 59 59 59 60 61 61 61 60 60 59 59 59 59 59 58 57 56 55 54 49 42 32 34 8 9 14 16 15 16 19 15 16 11 13 15 7 7 6 14 12 10 8 12 15 19 20 17 27 29 20 23 31 27 29 9 3 9 1 3 3 2 4 6 4 4 14 16 14 9 8 6 5 3 3 2 2 2 2 4 8 8 5
57 57 57 58 58 58 59 59 59 59 60 61 60 60 58 58 59 59 59 58 56 54 54 54 54 32 15 8 9 6 12 15 17 14 16 20 18 15 10 11 14 5 4 6 12 16 19 20 13 17 37 31 23 23 19 27 28 23 25 26 26 9 7 3 4 5 4 4 7 6 9 15 14 16 11 6 5 4 1 1 1 0 0 0 0 0 3 3
57 57 57 58 59 59 59 59 59 59 59 59 60 59 58 59 59 59 59 57 56 56 54 53 55 33 8 9 8 8 12 17 20 14 17 19 18 17 19 13 13 7 5 7 14 19 22 24 20 30 26 29 24 22 24 31 22 25 23 23 18 19 18 4 5 7 8 5 5 7 9 15 17 13 11 7 4 3 1 0 1 0 -0 -0 1 1 3 4
57 57 58 58 58 59 58 58 58 58 58 59 59 58 58 58 58 59 59 57 56 54 55 55 54 36 37 14 11 12 26 20 17 15 16 19 19 15 12 11 13 12 10 12 16 22 30 31 20 22 29 32 32 27 34 24 22 23 17 23 23 15 17 6 7 7 8 5 9 10 10 15 12 12 11 7 3 1 1 0 -1 -1 -2 -1 0 1 3 5
57 58 57 58 58 59 59 58 57 58 58 57 57 58 57 56 55 56 56 54 54 54 53 55 49 20 21 15 9 13 23 26 11 13 15 18 16 12 8 8 8 10 14 10 16 24 22 21 18 29 38 27 34 33 23 16 30 13 25 25 16 13 12 7 8 7 9 8 7 12 11 13 12 12 11 6 3 1 -0 -1 -2 -1 -2 -1 6 2 3 4
57 57 58 58 58 57 57 56 57 57 57 56 56 55 56 53 54 53 55 52 52 55 55 55 46 50 21 17 10 14 43 31 10 11 16 17 16 13 13 20 6 8 12 12 16 15 18 23 16 16 16 35 36 34 32 23 16 16 18 16 16 12 12 7 10 8 8 10 10 15 12 10 12 12 11 6 4 1 -1 -1 -1 -1 -2 -2 2 -2 -1 1
57 57 58 58 56 56 56 57 57 57 56 56 55 56 56 53 51 52 50 46 50 53 44 51 49 14 15 9 7 30 16 9 10 11 17 18 17 17 17 8 15 16 9 12 14 19 18 19 17 17 18 15 17 17 24 17 15 17 16 12 11 11 13 15 15 8 11 11 13 14 13 19 10 12 11 7 4 1 -0 -1 -1 -1 -1 -1 -2 1 1 6
57 58 58 57 55 55 55 55 53 53 53 53 52 50 49 48 46 46 47 48 46 47 25 37 28 32 20 23 13 7 10 10 14 11 14 18 19 18 15 8 7 6 5 11 20 20 25 15 35 26 21 11 15 19 20 14 11 12 18 13 14 10 9 9 17 18 19 18 14 15 11 9 11 12 12 9 6 1 -0 -1 -1 0 0 1 4 -1 -1 3
57 58 57 56 55 54 54 54 53 54 54 53 50 50 39 51 49 47 41 52 53 44 50 27 36 34 17 10 8 9 12 11 12 11 14 17 27 19 17 16 18 7 3 15 17 14 13 14 15 14 16 14 14 15 13 10 13 12 13 12 10 10 11 10 11 14 17 23 17 13 9 7 9 11 12 10 7 2 -0 -0 -0 -1 -0 1 1 3 4 6
57 58 57 56 54 53 52 55 56 56 56 58 58 57 55 55 51 32 32 26 44 38 39 28 28 22 25 13 12 12 13 15 16 10 12 15 17 18 18 18 16 15 21 18 21 15 17 21 29 14 14 13 13 20 15 18 19 19 18 16 12 11 10 9 11 18 22 12 15 9 10 6 9 11 12 10 6 2 0 0 1 -1 0 0 0 4 5 8
57 57 57 56 56 54 55 56 56 57 57 53 60 61 51 50 42 33 35 29 25 30 33 35 22 27 9 12 11 14 15 14 6 10 13 15 16 14 15 17 27 24 30 27 29 15 30 16 14 12 17 17 14 19 14 14 20 20 21 15 11 12 11 13 12 15 22 17 10 10 10 7 9 10 11 10 6 3 1 1 1 4 1 5 2 3 8 7
57 56 57 57 55 56 56 56 56 56 56 56 57 50 43 46 40 24 30 30 30 30 27 30 23 12 11 13 13 15 14 7 9 11 15 19 18 16 18 21 26 23 25 35 29 31 23 15 17 18 15 14 19 21 17 17 20 22 15 14 10 15 7 9 10 17 18 20 10 10 8 9 9 9 9 8 6 1 1 1 0 1 2 3 7 8 8 7
55 56 56 57 56 57 57 56 56 56 57 55 53 44 45 44 49 46 43 22 37 41 27 15 15 13 16 13 13 17 17 8 9 11 16 17 20 17 29 17 22 20 25 30 30 25 13 14 19 16 14 23 25 23 16 17 20 18 13 9 11 10 13 12 19 18 13 17 12 10 8 8 7 7 7 6 4 5 3 2 1 0 3 7 7 7 8 8
56 56 56 57 57 57 57 56 53 53 58 49 48 40 43 45 42 48 49 24 30 40 35 35 22 14 13 14 16 20 9 11 15 10 14 16 21 25 33 20 23 23 17 18 18 19 14 17 10 16 21 22 23 23 15 16 19 12 12 10 8 12 11 9 11 15 14 14 12 12 7 8 6 6 4 4 3 5 9 10 12 14 5 6 5 7 9 7
55 56 56 57 57 57 57 56 54 55 51 49 47 46 46 47 45 45 52 37 30 38 38 37 25 18 16 15 20 19 13 16 18 10 15 17 20 30 28 25 21 23 21 21 17 14 16 20 9 22 25 24 19 19 15 12 10 19 19 12 10 10 9 9 9 12 16 23 22 8 10 7 9 4 4 6 8 6 12 7 9 9 12 10 16 11 8 7
55 55 55 57 55 55 56 55 49 52 56 49 46 46 46 49 49 51 50 36 36 34 33 41 41 15 17 20 21 30 17 24 14 14 19 18 22 31 29 35 31 24 28 30 25 20 20 26 22 25 20 17 21 15 16 13 8 12 17 11 9 11 11 11 13 13 7 4 18 14 2 -1 5 4 3 5 5 3 5 7 6 6 5 10 9 8 8 7
54 55 55 56 54 53 52 47 49 50 57 49 46 46 48 48 53 49 46 32 22 29 39 29 17 19 20 22 20 37 33 25 23 15 28 20 26 28 34 25 28 25 30 30 20 22 23 23 23 21 21 20 20 16 19 15 9 11 13 16 14 11 14 14 14 14 9 6 10 17 -2 1 5 3 3 4 4 2 3 6 5 6 8 9 8 5 3 -0
54 54 54 55 52 52 51 48 56 56 50 48 50 48 48 51 51 55 46 26 20 30 32 39 34 29 38 23 29 32 26 29 22 19 20 24 28 37 34 27 31 33 34 29 25 14 28 22 21 22 15 17 16 9 18 10 12 11 15 14 14 14 13 15 15 14 9 13 13 14 5 -1 -0 2 4 4 3 3 4 5 5 8 8 8 7 6 3 -1
55 54 53 53 49 51 52 49 53 48 53 52 48 48 49 49 54 55 38 12 13 35 31 30 36 34 24 32 22 20 26 33 31 15 27 31 27 36 30 29 25 28 32 28 15 21 27 23 22 24 20 14 9 14 17 18 9 12 16 16 13 15 15 16 15 10 9 4 9 2 8 -1 -0 3 5 5 2 3 5 8 9 10 10 10 9 8 -0 -6
55 54 55 53 51 51 59 55 56 53 49 50 49 49 54 54 52 43 28 13 24 30 40 33 38 30 30 35 27 30 33 30 24 32 29 34 24 34 24 30 33 27 30 30 16 21 25 21 24 28 16 7 17 11 13 18 12 16 15 17 17 17 18 18 11 8 6 5 6 -2 4 0 -1 3 3 5 4 4 8 9 10 11 11 9 10 4 -4 -8
53 53 55 55 55 57 56 52 47 51 49 50 51 51 52 52 48 29 12 3 32 26 33 35 33 26 34 36 33 28 25 29 33 31 35 28 19 29 30 34 35 29 25 28 25 27 20 29 31 26 19 17 12 13 19 17 16 16 19 13 11 12 10 8 7 5 8 5 -1 6 3 1 1 -3 1 1 2 8 10 10 10 11 11 9 7 -1 -2 -5
51 52 53 52 56 54 53 46 50 51 51 51 52 52 53 46 28 16 5 24 37 36 37 35 31 37 29 30 24 28 34 31 30 31 30 34 23 23 31 28 32 29 19 20 20 25 29 29 32 23 28 23 19 16 22 21 21 21 11 5 6 7 2 2 5 6 3 2 1 1 2 7 -0 -1 8 10 10 9 9 8 9 10 8 7 1 -3 -7 -8
48 49 51 49 51 53 52 50 50 52 52 48 51 52 42 29 22 16 15 38 28 27 27 28 32 28 30 29 29 25 22 29 30 31 25 20 19 16 15 15 19 20 15 11 14 24 21 17 22 26 24 24 17 13 13 23 21 14 6 5 7 5 5 3 2 3 1 4 2 2 5 2 -1 -3 8 9 9 8 8 12 10 9 6 4 -1 -4 -4 -7
51 47 47 46 48 46 46 47 50 51 51 50 50 45 38 20 9 18 17 23 20 33 30 34 29 30 26 28 27 28 29 24 28 28 31 27 22 23 23 20 23 20 10 14 10 15 14 21 22 24 25 21 16 4 3 8 9 6 3 6 6 1 1 -1 1 3 5 4 5 3 7 2 2 2 6 6 7 10 10 11 12 7 5 1 -2 -5 -6 -4
50 50 44 45 45 45 46 48 49 49 52 53 47 42 20 14 12 24 19 20 25 32 31 28 29 30 28 17 23 26 21 27 28 25 27 19 17 15 20 21 20 19 18 14 5 6 13 10 14 20 14 18 13 7 12 11 9 3 13 3 8 5 -1 -2 2 1 2 3 4 7 2 1 1 4 9 5 8 10 9 13 11 7 5 1 -2 -6 -11 -9
52 53 51 52 52 50 48 47 50 48 52 47 44 27 17 13 16 19 20 20 26 30 31 29 29 23 26 24 25 26 24 19 26 25 19 17 11 8 16 10 20 22 22 19 12 13 17 13 20 23 19 15 17 19 20 17 12 9 10 13 9 6 5 5 5 4 3 5 5 4 2 4 3 8 10 8 7 8 11 9 9 5 4 -0 -4 -6 -8 -9
55 52 56 48 47 49 51 49 49 48 51 47 36 22 22 17 16 21 24 34 30 26 32 31 30 25 10 18 22 19 33 22 23 21 17 17 21 15 20 20 18 21 16 17 12 11 13 7 21 23 19 6 7 18 19 20 7 5 9 8 5 8 4 6 7 4 4 5 4 3 6 5 5 5 7 8 7 9 7 5 4 3 -2 -4 -9 -11 -15 -10
50 53 44 48 48 49 50 52 51 49 48 44 31 23 20 19 27 27 32 31 31 32 26 17 20 22 12 13 17 14 21 25 19 15 8 22 16 21 21 23 25 20 17 14 18 13 12 9 24 21 19 15 12 16 22 22 18 9 8 3 15 11 10 6 4 4 4 2 1 3 5 5 6 5 4 4 4 4 3 -0 -3 -3 -4 -9 -10 -16 -14 -11
49 46 48 47 46 49 51 51 50 53 45 38 23 25 22 21 29 33 32 30 29 26 20 20 21 28 15 11 13 13 20 18 21 21 16 21 15 23 20 21 23 16 17 21 18 15 14 14 18 17 19 20 23 19 15 18 21 8 5 15 8 6 6 5 3 -1 -1 -1 2 2 4 6 8 8 4 6 5 3 -0 -2 -4 -5 -7 -10 -16 -18 -14 -11
49 48 44 47 51 50 52 48 51 50 43 27 25 23 28 30 30 34 34 34 33 30 21 23 21 19 20 16 12 15 16 18 16 14 16 15 13 24 20 21 23 22 19 24 16 13 18 12 13 16 12 13 11 14 13 7 16 19 15 10 14 6 6 4 3 5 5 2 1 1 4 3 7 5 4 3 5 2 -1 -2 -4 -5 -6 -9 -15 -21 -19 -12
47 43 41 47 51 52 48 50 50 48 40 29 26 25 29 30 33 32 29 34 29 27 17 15 24 17 17 21 21 19 21 20 12 12 17 17 13 23 22 19 17 21 24 24 16 17 16 8 12 12 19 14 6 5 3 3 11 10 9 10 10 7 9 8 7 5 2 0 1 2 1 4 4 5 4 4 1 0 -1 -3 -4 -5 -7 -13 -19 -20 -19 -14
44 42 44 50 50 52 52 43 32 28 28 21 29 30 31 30 32 30 33 33 34 34 26 27 21 14 20 19 17 20 15 12 16 16 14 20 15 18 24 25 21 19 20 19 14 13 13 11 13 10 8 8 9 12 10 4 3 5 9 10 9 7 6 4 3 8 4 4 0 0 0 4 6 6 4 -1 0 -0 -1 -3 -3 -3 -7 -13 -21 -18 -16 -15
42 34 41 48 51 54 51 35 27 24 24 22 27 31 31 35 33 33 33 34 33 25 30 27 25 24 21 22 24 21 20 15 16 16 17 14 22 18 27 32 28 24 17 16 13 18 12 11 9 12 10 13 4 6 12 15 16 13 4 7 8 9 8 5 1 3 6 5 4 5 2 4 8 3 0 1 1 0 -0 -2 -3 -5 -9 -15 -20 -17 -13 -14
44 37 44 50 50 50 44 31 27 30 26 28 34 32 33 31 30 31 31 31 29 31 27 29 31 27 27 27 24 20 22 18 19 13 19 20 22 26 31 31 30 27 19 18 12 12 21 15 14 13 14 11 9 13 7 11 15 10 5 5 8 11 10 8 5 8 5 4 3 4 3 5 6 4 4 4 4 3 1 -1 -3 -5 -10 -16 -20 -22 -20 -19
40 38 41 51 52 46 44 28 28 26 26 31 32 30 34 33 30 28 30 29 28 24 27 26 27 28 28 28 19 19 22 14 22 19 18 18 21 30 31 31 28 16 16 18 19 20 16 11 7 10 14 10 3 4 8 9 12 4 8 6 8 10 8 6 7 5 3 5 4 3 -0 4 8 7 7 6 4 4 2 -1 -3 -5 -9 -17 -21 -20 -23 -22
35 39 39 42 43 45 41 36 29 27 25 28 26 28 28 28 32 33 33 30 29 23 22 25 29 26 27 26 26 21 22 21 13 20 10 11 23 29 30 30 27 20 28 28 26 22 18 17 10 11 10 9 10 11 12 13 11 7 11 6 9 11 10 8 7 6 4 5 5 4 4 5 7 8 7 6 6 5 4 -1 -1 -3 -10 -18 -21 -21 -24 -23
33 25 38 38 41 39 33 33 32 27 27 27 23 27 26 28 31 32 34 29 28 27 23 29 26 22 26 26 24 21 22 23 19 14 11 14 22 28 30 29 28 26 27 26 25 19 15 13 7 8 11 12 15 15 16 18 10 11 9 10 11 12 13 9 7 6 5 5 5 6 7 6 6 7 7 6 6 6 3 -1 -1 -4 -10 -18 -21 -22 -22 -20
38 34 31 30 37 32 26 31 31 27 25 26 21 26 24 26 29 27 32 25 28 28 26 26 27 24 24 25 26 23 25 23 21 15 11 11 15 25 30 29 29 30 28 27 25 15 14 14 15 14 14 14 13 11 12 14 9 8 10 12 13 13 12 8 7 6 8 6 4 7 7 8 7 6 6 6 7 6 2 -1 -1 -3 -10 -19 -22 -21 -3 -18
34 33 34 35 37 29 28 26 30 34 33 29 25 27 26 25 26 23 27 29 28 24 24 24 26 27 25 25 24 17 23 22 21 15 12 12 17 20 23 28 26 29 27 25 21 15 13 12 19 11 11 13 13 10 9 10 9 9 10 10 13 13 12 8 8 9 8 6 4 6 6 6 6 6 7 7 7 5 0 0 -1 -3 -12 -21 -22 -21 -21 -20
37 30 31 33 35 26 31 34 36 33 32 27 20 28 26 25 25 27 25 25 27 24 27 21 26 25 27 25 23 17 23 14 18 21 17 18 18 17 18 23 27 28 26 16 13 18 14 16 18 12 12 11 10 11 12 10 9 9 12 10 8 12 13 11 10 10 9 9 8 7 7 7 7 7 8 8 8 2 1 0 -0 -5 -13 -19 -20 -20 -19 -19
31 32 25 33 29 20 24 27 34 32 27 26 21 27 27 25 26 25 26 25 22 24 26 23 25 26 27 26 25 19 19 25 20 13 18 21 18 19 20 18 23 23 22 18 15 18 16 13 15 12 11 12 13 15 15 14 12 9 7 7 7 7 8 13 13 12 12 10 9 9 9 9 10 10 10 10 3 2 1 1 0 -6 -16 -19 -19 -18 -18 -18
37 34 39 29 28 24 20 25 30 32 23 25 24 30 27 28 27 27 29 30 30 26 24 24 30 30 29 27 25 25 27 25 25 23 22 20 17 23 20 16 20 19 19 15 13 17 11 13 13 12 12 12 15 15 16 14 11 9 7 7 6 5 8 8 10 11 11 11 11 10 10 10 11 10 8 4 3 2 2 1 -1 -6 -15 -17 -17 -15 -15 -17
39 37 41 45 24 23 22 23 26 26 23 30 32 30 26 28 32 28 23 31 28 32 33 32 30 25 27 28 26 28 27 25 27 24 21 21 16 15 18 20 17 22 19 17 18 17 13 14 13 13 11 11 15 14 10 10 10 11 12 10 9 8 6 7 8 10 11 9 10 8 8 10 10 10 7 6 5 4 2 1 -1 -5 -13 -17 -16 -15 -14 -17